Regional Weather Roundup
Issued by NWS Jackson, KY

Home | Current Version | Previous Version | Graphics & Text | Print | Product List | Glossary On
Versions: 1 2 3 4 5 6 7 8 9 10 11 12 13 14 15 16 17 18 19 20 21 22 23 24 25 26 27 28 29 30 31 32 33 34 35 36 37 38 39 40 41 42 43 44 45 46 47 48 49 50
000
ASUS43 KJKL 171710
RWRJKL

EAST KENTUCKY HOURLY WEATHER ROUNDUP
NATIONAL WEATHER SERVICE JACKSON KY
100 PM EDT FRI APR 17 2015

NOTE: "FAIR" INDICATES FEW OR NO CLOUDS BELOW 12,000 FEET WITH
NO SIGNIFICANT WEATHER AND/OR OBSTRUCTIONS TO VISIBILITY.

* THESE REPORTS ARE NOT UNDER NWS QUALITY CONTROL AND MAY NOT
  REPORT WEATHER SUCH AS PRECIPITATION AND FOG.

KYZ079-080-083-085-087-088-110-112-115-119-120-171800
...EASTERN KENTUCKY...

CITY           SKY/WX    TMP DP  RH WIND       PRES   REMARKS
JACKSON        PTSUNNY   68  56  65 CALM      30.13F
LONDON         PTSUNNY   68  55  63 CALM      30.12F
SOMERSET*      CLOUDY    64  55  72 CALM      30.14S
MONTICELLO*    CLOUDY    69  60  73 N3        30.15F
MIDDLESBORO*   MOSUNNY   71  59  66 SE5       30.12F
HARLAN APT*    PTSUNNY   73  52  46 S3        30.11F
HAZARD APT*    CLOUDY    68  57  68 N3        30.13F
BLACK MTN*       N/A     59  54  82 NW2         N/A
PIKEVILLE APT* CLOUDY    66  57  72 CALM      30.13F
BIG SANDY*     CLOUDY    69  58  68 SW5       30.12F
MOREHEAD APT*  CLOUDY    68  59  73 NW8       30.14F
$$

KYZ035-036-041-042-044-050-067-078-099-171800
...CENTRAL KENTUCKY...

CITY           SKY/WX    TMP DP  RH WIND       PRES   REMARKS
MT STERLING*   CLOUDY    68  61  77 NW3       30.14F
FLEMING/MASON* PTSUNNY   70  61  73 S3        30.12F
DANVILLE*      CLOUDY    68  59  73 SE3       30.12F
RICHMOND*      PTSUNNY   66  57  72 CALM      30.12F
LEXINGTON      PTSUNNY   69  60  73 VRB3      30.12F
FRANKFORT      PTSUNNY   70  59  68 CALM      30.10F
$$

KYZ091>093-OHZ055-061-077-WVZ005-015-034-035-042-171800
...SOUTHERN OHIO/WEST VIRGINIA...

CITY           SKY/WX    TMP DP  RH WIND       PRES   REMARKS
COVINGTON      PTSUNNY   69  52  54 N3        30.12F
COLUMBUS       SUNNY     69  52  54 W8        30.09F
DAYTON         MOSUNNY   70  46  42 N9        30.11F
WILMINGTON     SUNNY     67  45  45 VRB5      30.11F
HUNTINGTON     CLOUDY    71  58  63 VRB5      30.10F
CHARLESTON     PTSUNNY   69  57  65 W9G18     30.11S
PINEVILLE*     PTSUNNY   72  56  58 MISG      30.17F
BECKLEY        PTSUNNY   68  52  56 W7        30.14F
BLUEFIELD      PTSUNNY   69  51  52 VRB7      30.16F
$$

VAZ002-007-008-TNZ017-027-036-066-071-171800
...SOUTHWEST VIRGINIA/EAST TENNESSEE...

CITY           SKY/WX    TMP DP  RH WIND       PRES   REMARKS
WISE*          CLOUDY    68  52  56 NW3       30.16F
JONESVILLE*    PTSUNNY   68  57  68 CALM      30.14F
ABINGDON*      PTSUNNY   70  57  62 W7        30.14F
BRISTOL        PTSUNNY   67  57  70 VRB3      30.13F
KNOXVILLE      CLOUDY    66  58  75 VRB3      30.11F
OAK RIDGE      PTSUNNY   69  59  70 VRB3      30.12F
CROSSVILLE     CLOUDY    68  57  68 VRB3      30.12F
NASHVILLE      CLOUDY    66  59  78 CALM      30.11F
$$

...KEY TO REMARKS...
VSB - VISIBILITY IN MILES
WCI - WIND CHILL INDEX
HX  - HEAT INDEX

$$


USA.gov is the U.S. government's official web portal to all federal, state and local government web resources and services.